This is the latest recevied weather packets stored in our database for station/object W2JBO-5. If no packets are shown the sender has not sent any weather packets the latest 10 day(s).
| Time | Temp. | Humidity | Pressure | Rain* | Wind** | Luminosity | Snow |
|---|---|---|---|---|---|---|---|
| 1777392233 | 29.44° C | 76% | 1017.5 hPa | 0 mm | - | 811 W/m² | - |
| 1777391929 | 28.89° C | 79% | 1017.4 hPa | 0 mm | - | 767 W/m² | - |
| 1777391623 | 28.33° C | 79% | 1017.5 hPa | 0 mm | - | 726 W/m² | - |
| 1777391321 | 27.78° C | 81% | 1017.6 hPa | 0 mm | - | 751 W/m² | - |
| 1777391018 | 27.78° C | 81% | 1017.4 hPa | 0 mm | - | 382 W/m² | - |
| 1777390713 | 27.78° C | 82% | 1017.6 hPa | 0 mm | - | 350 W/m² | - |
| 1777390410 | 27.78° C | 81% | 1017.6 hPa | 0 mm | - | 561 W/m² | - |
| 1777390106 | 27.78° C | 83% | 1017.6 hPa | 0 mm | - | 483 W/m² | - |
| 1777389803 | 27.22° C | 84% | 1017.6 hPa | 0 mm | - | 665 W/m² | - |
| 1777389500 | 27.22° C | 84% | 1017.6 hPa | 0 mm | - | 324 W/m² | - |
| 1777389197 | 26.67° C | 85% | 1017.6 hPa | 0 mm | - | 531 W/m² | - |
| 1777388895 | 26.67° C | 88% | 1017.3 hPa | 0 mm | - | 495 W/m² | - |
| 1777388591 | 26.67° C | 87% | 1017.3 hPa | 0 mm | - | 328 W/m² | - |
| 1777388287 | 26.11° C | 90% | 1017.3 hPa | 0 mm | - | 196 W/m² | - |
| 1777387981 | 26.11° C | 90% | 1017.3 hPa | 0 mm | - | 433 W/m² | - |
| 1777387678 | 26.11° C | 89% | 1017.3 hPa | 0 mm | - | 222 W/m² | - |
| 1777387375 | 25.56° C | 91% | 1017.3 hPa | 0 mm | - | 439 W/m² | - |
| 1777387069 | 25.56° C | 91% | 1017.3 hPa | 0 mm | - | 168 W/m² | - |
| 1777386766 | 26.11° C | 90% | 1017.3 hPa | 0 mm | - | 138 W/m² | - |
| 1777386463 | 26.11° C | 91% | 1017.3 hPa | 0 mm | - | 363 W/m² | - |
| 1777386160 | 25.56° C | 92% | 1017.3 hPa | 0 mm | - | 367 W/m² | - |
| 1777385856 | 25° C | 94% | 1017.4 hPa | 0 mm | - | 351 W/m² | - |
| 1777385553 | 25° C | 95% | 1017.4 hPa | 0 mm | - | 117 W/m² | - |
| 1777385251 | 24.44° C | 96% | 1017.4 hPa | 0 mm | - | 193 W/m² | - |
| 1777384946 | 24.44° C | 96% | 1017.4 hPa | 0 mm | - | 102 W/m² | - |
* Rain latest hour (hover to see other rain measurements)
** Current wind speed in m/s (hover to see current wind gust speed)